KM4NDI Weather Reports


Display with metric or nautical units.
time (UTC)temp
F
wind
direction
speed
MPH
gust
MPH
rain 1hr
in
rain 24hr
in
rain mn
in
humidity
%
barometer
mb
20260906224525 96 0.0 0.0 0.00 0.28 0.28 55 1011.5
20260906223602 97 0.0 0.0 0.00 0.28 0.28 54 1011.4
20260906222540 98 0.0 0.0 0.00 0.28 0.28 53 1011.0
20260906221522 98 0.0 0.0 0.00 0.28 0.28 53 1011.0
20260906220525 94 0.0 0.0 0.00 0.28 0.28 60 1011.0
20260906215548 95 0.0 0.0 0.00 0.28 0.28 58 1011.0
20260906214531 96 0.0 0.0 0.00 0.28 0.28 54 1011.1
20260906213516 96 0.0 0.0 0.00 0.28 0.28 55 1011.2
20260906212519 97 0.0 2.0 0.00 0.28 0.28 51 1011.3
20260906211523 95 0.0 0.0 0.00 0.28 0.28 63 1011.5
20260906210526 95 0.0 0.0 0.00 0.28 0.28 61 1011.7
20260906205543 94 296 1.0 5.0 0.00 0.28 0.28 60 1011.8
20260906204520 93 0.0 0.0 0.00 0.28 0.28 64 1011.8
20260906203517 96 0.0 1.0 0.00 0.28 0.28 58 1011.8
20260906202540 99 0.0 0.0 0.00 0.28 0.28 51 1011.7
20260906201523 95 124 1.0 4.0 0.00 0.28 0.28 55 1011.7
20260906200526 97 212 1.0 4.0 0.00 0.28 0.28 50 1011.7
20260906195530 98 203 0.0 3.0 0.00 0.28 0.28 52 1011.7
20260906194535 98 0.0 0.0 0.00 0.28 0.28 51 1012.0
20260906193538 97 120 1.0 5.0 0.00 0.28 0.28 51 1012.1
20260906192541 96 131 0.0 2.0 0.00 0.28 0.28 54 1012.4
20260906191524 97 0.0 0.0 0.00 0.28 0.28 51 1012.7
20260906190527 99 0.0 0.0 0.00 0.28 0.28 48 1012.8
20260906185530 97 113 1.0 4.0 0.00 0.28 0.28 51 1012.8
20260906184515 99 241 1.0 3.0 0.00 0.28 0.28 43 1013.1
20260906183518 98 147 1.0 4.0 0.00 0.28 0.28 45 1013.3
20260906182522 98 211 1.0 5.0 0.00 0.28 0.28 43 1013.4
20260906181525 97 0.0 0.0 0.00 0.28 0.28 50 1013.6
20260906180548 96 0.0 0.0 0.00 0.28 0.28 50 1013.7
20260906175531 97 0.0 0.0 0.00 0.28 0.28 48 1013.8
20260906174516 96 0.0 0.0 0.00 0.28 0.28 49 1013.8
20260906173539 96 295 0.0 3.0 0.00 0.28 0.28 53 1014.1
20260906172542 96 291 1.0 4.0 0.00 0.28 0.28 52 1014.1
20260906171520 95 270 0.0 3.0 0.00 0.28 0.28 53 1014.2
20260906170516 94 353 1.0 4.0 0.00 0.28 0.28 52 1014.3
20260906165552 93 0.0 0.0 0.00 0.28 0.28 55 1014.5
20260906164517 92 225 0.0 4.0 0.00 0.28 0.28 59 1014.8
20260906163520 92 287 1.0 4.0 0.00 0.28 0.28 58 1014.8
20260906162523 91 0.0 0.0 0.00 0.28 0.28 62 1014.8
20260906161526 91 286 1.0 3.0 0.00 0.28 0.28 62 1014.8
20260906160529 89 0.0 0.0 0.00 0.28 0.28 68 1014.8
20260906155612 86 0.0 0.0 0.00 0.28 0.28 74 1014.8
20260906154518 88 135 0.0 3.0 0.00 0.28 0.28 65 1015.0
20260906153521 87 0.0 0.0 0.00 0.28 0.28 72 1015.0
20260906152524 86 0.0 0.0 0.00 0.28 0.28 71 1014.8
20260906151527 84 0.0 0.0 0.00 0.28 0.28 80 1014.8
20260906150530 84 0.0 0.0 0.00 0.28 0.28 77 1014.8
20260906145515 83 0.0 0.0 0.00 0.28 0.28 80 1014.8
20260906144518 83 0.0 0.0 0.00 0.28 0.28 78 1014.8
20260906143521 81 0.0 3.0 0.00 0.28 0.28 87 1014.7
20260906142524 81 113 0.0 2.0 0.00 0.28 0.28 85 1014.8
20260906141528 79 0.0 0.0 0.00 0.28 0.28 92 1014.8
20260906140525 79 0.0 0.0 0.00 0.28 0.28 90 1014.8
20260906135516 77 0.0 0.0 0.00 0.28 0.28 93 1014.8
20260906134519 76 0.0 0.0 0.00 0.28 0.28 95 1014.8
20260906133516 75 0.0 0.0 0.00 0.28 0.28 98 1015.2
20260906132525 75 0.0 0.0 0.00 0.28 0.28 99 1015.2
20260906131528 74 0.0 0.0 0.00 0.28 0.28 99 1015.1
20260906130532 74 0.0 1.0 0.00 0.28 0.28 99 1015.0
20260906125537 74 0.0 0.0 0.00 0.28 0.28 99 1015.0
20260906124520 74 0.0 0.0 0.00 0.28 0.28 99 1014.6
20260906123523 73 0.0 0.0 0.00 0.28 0.28 99 1014.3
20260906122526 73 0.0 0.0 0.00 0.28 0.28 99 1014.0
20260906121529 73 0.0 0.0 0.00 0.28 0.28 99 1013.8
20260906120552 72 0.0 0.0 0.01 0.28 0.28 99 1013.7
20260906115517 72 0.0 0.0 0.02 0.28 0.28 99 1013.6
20260906114540 72 0.0 0.0 0.03 0.28 0.28 99 1013.6
20260906113524 73 0.0 0.0 0.05 0.28 0.28 99 1013.6
20260906112527 72 0.0 0.0 0.07 0.28 0.28 99 1013.4
20260906111530 72 0.0 0.0 0.08 0.28 0.28 99 1013.7
20260906110515 72 0.0 0.0 0.07 0.27 0.27 99 1013.9
20260906105518 72 0.0 0.0 0.06 0.26 0.26 99 1014.1
20260906104521 72 0.0 0.0 0.06 0.25 0.25 99 1014.1
20260906103524 72 0.0 0.0 0.04 0.23 0.23 99 1014.3
20260906102622 72 0.0 0.0 0.03 0.21 0.21 99 1014.6
20260906101538 73 0.0 0.0 0.03 0.20 0.20 99 1014.8
20260906100516 73 0.0 0.0 0.04 0.20 0.20 99 1014.8
20260906095519 73 0.0 0.0 0.04 0.20 0.20 99 1014.8
20260906094522 73 0.0 0.0 0.05 0.19 0.19 99 1014.8
20260906093525 73 0.0 0.0 0.05 0.19 0.19 99 1015.0
20260906092528 74 0.0 0.0 0.04 0.18 0.18 99 1014.7
20260906091532 74 0.0 0.0 0.03 0.17 0.17 99 1014.3
20260906090517 74 0.0 0.0 0.02 0.16 0.16 99 1014.1
20260906085540 74 0.0 0.0 0.02 0.16 0.16 99 1014.1
20260906084523 74 0.0 0.0 0.00 0.14 0.14 99 1014.1
20260906083526 74 0.0 0.0 0.00 0.14 0.14 99 1014.1
20260906082529 74 0.0 0.0 0.08 0.14 0.14 99 1014.0
20260906081532 74 0.0 0.0 0.13 0.14 0.14 97 1014.0
20260906080517 75 0.0 0.0 0.13 0.14 0.14 96 1014.1
20260906075520 75 293 0.0 3.0 0.13 0.14 0.14 96 1014.3
20260906074523 76 174 1.0 3.0 0.13 0.14 0.14 96 1014.5
20260906073527 76 144 2.0 5.0 0.13 0.14 0.14 99 1014.8
20260906072530 77 0.0 0.0 0.05 0.06 0.06 99 1014.8
20260906071515 77 0.0 0.0 0.00 0.01 0.01 99 1014.5
20260906070538 77 0.0 0.0 0.00 0.01 0.01 99 1014.3
20260906065541 77 0.0 0.0 0.00 0.01 0.01 99 1014.1
20260906064519 77 0.0 0.0 0.00 0.01 0.01 99 1013.8
20260906063515 77 0.0 0.0 0.00 0.01 0.01 99 1013.8
20260906062530 77 0.0 0.0 0.00 0.01 0.01 98 1013.8
20260906061516 77 0.0 0.0 0.00 0.01 0.01 98 1013.8
20260906060519 77 0.0 0.0 0.00 0.01 0.01 98 1013.8
20260906055522 78 0.0 0.0 0.01 0.01 0.01 98 1013.8
20260906054525 78 0.0 0.0 0.01 0.01 0.01 99 1014.1
20260906053548 78 0.0 0.0 0.01 0.01 0.01 99 1014.3
20260906052531 78 0.0 0.0 0.01 0.01 0.01 99 1014.5
20260906051517 78 0.0 0.0 0.01 0.01 0.01 98 1014.5
20260906050540 78 0.0 0.0 0.01 0.01 0.01 98 1014.6
20260906045523 78 0.0 0.0 0.00 0.00 0.00 98 1014.8
20260906044526 79 0.0 0.0 0.00 0.00 0.00 98 1014.7
20260906043549 79 0.0 0.0 0.00 0.00 0.00 98 1014.6
20260906042533 79 0.0 0.0 0.00 0.00 0.00 97 1014.6
20260906041518 79 0.0 0.0 0.00 0.00 0.00 96 1014.6
20260906040521 79 0.0 0.0 0.00 0.00 0.00 96 1014.7
20260906035524 79 0.0 0.0 0.00 0.00 0.00 94 1014.8
20260906034527 80 0.0 0.0 0.00 0.00 0.00 90 1014.8
20260906033524 80 0.0 0.0 0.00 0.00 0.00 89 1015.0
20260906032515 80 0.0 0.0 0.00 0.00 0.00 89 1014.3
20260906031518 80 0.0 0.0 0.00 0.00 0.00 88 1014.3
20260906030515 80 0.0 0.0 0.00 0.00 0.00 88 1014.2
20260906025525 80 0.0 0.0 0.00 0.00 0.00 87 1014.1
20260906024547 81 0.0 0.0 0.00 0.00 0.00 86 1014.0
20260906023531 81 0.0 0.0 0.00 0.00 0.00 86 1014.1
20260906022516 81 0.0 0.0 0.00 0.00 0.00 85 1014.1
20260906021519 81 0.0 0.0 0.00 0.00 0.00 84 1014.1
20260906020522 82 0.0 0.0 0.00 0.00 0.00 84 1014.0
20260906015525 82 0.0 0.0 0.00 0.00 0.00 82 1013.8
20260906014528 83 0.0 0.0 0.00 0.00 0.00 80 1013.6
20260906013531 84 0.0 0.0 0.00 0.00 0.00 78 1013.3
20260906012536 84 0.0 0.0 0.00 0.00 0.00 76 1012.9
20260906011519 85 0.0 0.0 0.00 0.00 0.00 75 1012.8
20260906010543 85 315 0.0 2.0 0.00 0.00 0.00 72 1012.7
20260906005526 86 225 0.0 3.0 0.00 0.00 0.00 72 1012.6
20260906004529 86 45 0.0 2.0 0.00 0.00 0.00 71 1012.6
20260906003552 86 0.0 0.0 0.00 0.00 0.00 71 1012.6
20260906002517 87 0.0 0.0 0.00 0.00 0.00 68 1012.3
20260906001540 87 225 0.0 2.0 0.00 0.00 0.00 68 1012.3
20260906000523 88 0.0 0.0 0.00 0.00 0.00 64 1012.3
20260905235541 89 0.0 0.0 0.00 0.00 0.00 63 1012.3
20260905234518 91 0.0 0.0 0.00 0.00 0.00 58 1012.6
20260905233515 92 0.0 0.0 0.00 0.00 0.00 55 1012.4
20260905232518 94 0.0 0.0 0.00 0.00 0.00 53 1012.4
20260905231541 95 0.0 0.0 0.00 0.00 0.00 51 1012.4
20260905230525 96 0.0 0.0 0.00 0.00 0.00 50 1012.4
20260905225528 97 0.0 0.0 0.00 0.00 0.00 48 1012.3